Regional Weather Roundup
Issued by NWS

Home | Current Version | Previous Version | Graphics & Text | Print | Product List | Glossary On
Versions: 1 2 3 4 5 6 7 8 9 10 11 12 13 14 15 16 17 18 19 20 21 22 23 24 25 26 27 28 29 30 31 32 33 34 35 36 37 38 39 40 41 42 43 44 45 46 47 48 49 50
000
ASUS43 KLSX 221810
RWRMO

WEATHER SUMMARY FOR MISSOURI
NATIONAL WEATHER SERVICE SPRINGFIELD MO
100 PM CDT WED MAR 22 2017

NOTE: "FAIR" INDICATES FEW OR NO CLOUDS BELOW 12,000 FEET WITH NO
       SIGNIFICANT WEATHER AND/OR OBSTRUCTIONS TO VISIBILITY.
       CURRENT SKY AND/OR WEATHER CONDITIONS ARE NOT AVAILABLE FOR
       CHILLICOTHE AND FARMINGTON.

MOZ001>031-035>038-043-044-053-054-221900-
...NORTHERN AND WESTERN MISSOURI...

CITY           SKY/WX    TMP DP  RH WIND       PRES   REMARKS
KANSAS CTY INT PTSUNNY   52  26  36 E17G28    30.35F
6HR MIN TEMP:  36; 6HR MAX TEMP:  52;

KANSAS C DTWN  SUNNY     54  26  34 E9G20     30.34F
6HR MIN TEMP:  38; 6HR MAX TEMP:  54;

LEE`S SUMMIT   SUNNY     52  25  35 E12       30.35F
6HR MIN TEMP:  37; 6HR MAX TEMP:  53;

ST JOSEPH      MOSUNNY   52  25  35 E9        30.37F
6HR MIN TEMP:  35; 6HR MAX TEMP:  52;

CHILLICOTHE      N/A     45  27  49 E9G18     30.42F
6HR MIN TEMP:  35; 6HR MAX TEMP:  46;

KIRKSVILLE     CLOUDY    43  24  47 SE12      30.44F
6HR MIN TEMP:  30; 6HR MAX TEMP:  43;


$$
MOZ066>068-077>081-088>096-101>105-221900-
...SOUTHWEST MISSOURI...

CITY           SKY/WX    TMP DP  RH WIND       PRES   REMARKS
SPRINGFIELD    SUNNY     57  29  34 SE16      30.28F
6HR MIN TEMP:  46; 6HR MAX TEMP:  58;

JOPLIN         CLOUDY    53  30  41 E12       30.28R
6HR MIN TEMP:  47; 6HR MAX TEMP:  53;

BRANSON        CLOUDY    48  32  53 E14       30.30F

$$
MOZ032>034-039>042-045>050-055>058-069>072-221900-
...CENTRAL MISSOURI...

CITY           SKY/WX    TMP DP  RH WIND       PRES   REMARKS
COLUMBIA       CLOUDY    49  28  44 E12G20    30.39F
6HR MIN TEMP:  36; 6HR MAX TEMP:  50;

JEFFERSON CITY CLOUDY    49  28  44 E13G21    30.39F
6HR MIN TEMP:  40; 6HR MAX TEMP:  49;

ROLLA          SUNNY     49  28  44 NE8G18    30.36F
6HR MIN TEMP:  37; 6HR MAX TEMP:  50;

SEDALIA        CLOUDY    50  29  44 E14       30.37S
6HR MIN TEMP:  37; 6HR MAX TEMP:  53;

WARRENSBURG    CLOUDY    50  28  43 E13       30.35F
OSAGE BEACH    SUNNY    N/A N/A N/A E8G17     30.35F

$$
MOZ051-052-059>065-221900-
...EAST CENTRAL MISSOURI...

CITY           SKY/WX    TMP DP  RH WIND       PRES   REMARKS
ST LOUIS INTL  PTSUNNY   47  21  35 NE10      30.45F
6HR MIN TEMP:  36; 6HR MAX TEMP:  48;

SPIRIT OF STL  SUNNY     48  24  39 NE10G17   30.44F
6HR MIN TEMP:  35; 6HR MAX TEMP:  48;

ST CHARLES     SUNNY     48  22  35 NE14G20   30.45F
6HR MIN TEMP:  33; 6HR MAX TEMP:  48;


$$
MOZ072>076-082>087-097>100-106>115-221900-
...SOUTH CENTRAL AND SOUTHEAST MISSOURI...

CITY           SKY/WX    TMP DP  RH WIND       PRES   REMARKS
CAPE GIRARDEAU MOSUNNY   52  27  38 NE15G21   30.39F
6HR MIN TEMP:  42; 6HR MAX TEMP:  52;

FARMINGTON     SUNNY     48  28  46 NE8       30.40F
6HR MIN TEMP:  37; 6HR MAX TEMP:  49;

POPLAR BLUFF   SUNNY     52  34  50 NE16G22   30.37F
6HR MIN TEMP:  45; 6HR MAX TEMP:  53;

WEST PLAINS    SUNNY     55  33  43 E13       30.33F
6HR MIN TEMP:  43; 6HR MAX TEMP:  55;


$$



USA.gov is the U.S. government's official web portal to all federal, state and local government web resources and services.